Hourly Data Report for February 07, 2018

TORONTO CITY
ONTARIO

43°40'00.000" N
79°24'00.000" W
112.50 m
6158355
71508
XTO

Download Data

Hourly Data (February 2018)
Hourly Data Report for February 7, 2018
TIME
LST
Temp Definition
°C
Dew Point Definition
°C
Rel Hum Definition
%
Precip. Amount Definition
mm

Wind Dir Definition
10's deg

Wind Spd Definition
km/h
Visibility Definition
km
Stn Press Definition
kPa
Hmdx Definition


Wind Chill Definition


Weather Definition


00:00 -7.9 -14.2 61 0.0 LegendMM LegendMM   101.72     LegendNANA
01:00 -7.5 -14.0 59 0.0 LegendMM LegendMM   101.60     LegendNANA
02:00 -7.2 -13.5 61 0.0 LegendMM LegendMM   101.56     LegendNANA
03:00 -6.9 -13.0 62 0.0 LegendMM LegendMM   101.50     LegendNANA
04:00 -7.0 -12.7 64 0.0 LegendMM LegendMM   101.36     LegendNANA
05:00 -6.5 -11.4 68 0.0 LegendMM LegendMM   101.30     LegendNANA
06:00 -6.6 -8.9 84 0.3 LegendMM LegendMM   101.09     LegendNANA
07:00 -5.5 -7.0 89 0.6 LegendMM LegendMM   100.99     LegendNANA
08:00 -4.9 -5.9 92 1.4 LegendMM LegendMM   100.93     LegendNANA
09:00 -4.4 -5.4 93 1.3 LegendMM LegendMM   100.81     LegendNANA
10:00 -4.2 -5.4 92 1.6 LegendMM LegendMM   100.66     LegendNANA
11:00 -4.8 -6.2 90 1.0 LegendMM LegendMM   100.56     LegendNANA
12:00 -5.4 -7.2 88 0.8 LegendMM LegendMM   100.45     LegendNANA
13:00 -6.1 -8.2 85 0.2 LegendMM LegendMM   100.35     LegendNANA
14:00 -5.2 -8.9 75 0.2 LegendMM LegendMM   100.35     LegendNANA
15:00 -5.0 -9.2 72 0.0 LegendMM LegendMM   100.38     LegendNANA
16:00 -4.9 -10.0 67 0.0 LegendMM LegendMM   100.48     LegendNANA
17:00 -4.8 -10.3 66 0.0 LegendMM LegendMM   100.55     LegendNANA
18:00 -5.4 -10.3 68 0.0 LegendMM LegendMM   100.69     LegendNANA
19:00 -5.9 -10.4 71 0.0 LegendMM LegendMM   100.83     LegendNANA
20:00 -6.7 -10.8 73 0.0 LegendMM LegendMM   100.95     LegendNANA
21:00 -6.9 -10.6 75 0.0 LegendMM LegendMM   101.02     LegendNANA
22:00 -7.7 -11.1 76 0.0 LegendMM LegendMM   101.10     LegendNANA
23:00 -7.6 -11.5 73 0.0 LegendMM LegendMM   101.20     LegendNANA

Notes on Data Quality.

Legend

  • E = Estimated
  • M = Missing
  • NA = Not Available*
  • [empty] = Indicates an unobserved value
Date modified: